Location: Ayer Observatory
(42.2600°N, 71.0700°W)
Time: 21:50:38
(UTC-04:00)

FO-29 - Pass Details

Date: 01 September 2019
Orbit: 801 x 1321 km, 98.6° (Epoch: 17 October)

Event Time Altitude Azimuth Distance (km) Brightness Sun altitude
Exits shadow 01:49:37 13° 78° (ENE) 2,142 11.6 -37.2°
Maximum altitude 01:51:06 15° 59° (ENE) 2,048 11.6 -37.1°
Drops below altitude 10° 01:53:58 10° 26° (NNE) 2,398 12.3 -36.9°
Sets 01:57:18 0° 4° (N) 3,370 13.2 -36.7°
